Location: Allentsteig
(48.6833°N, 15.3167°E)
Time: 22:55:39
(UTC+00:00)

USA 238 DEB - Pass Details

Date: 23 January 2021
Orbit: 995 x 1217 km, 63.4° (Epoch: 07 March)

Event Time Altitude Azimuth Distance (km) Brightness Sun altitude
Rises 05:10:53 0° 206° (SSW) 3,715 6.4 -14.4°
Reaches altitude 10° 05:13:27 10° 203° (SSW) 2,783 5.8 -14.0°
Maximum altitude 05:19:53 63° 124° (SE) 1,156 4.2 -12.9°
Drops below altitude 10° 05:26:39 10° 45° (NE) 2,926 6.4 -11.9°
Sets 05:29:24 0° 43° (NE) 3,919 7.0 -11.4°
